TimeEST,TemperatureF,Dew PointF,Humidity,Sea Level PressureIn,VisibilityMPH,Wind Direction,Wind SpeedMPH,Gust SpeedMPH,PrecipitationIn,Events,Conditions,WindDirDegrees,DateUTC
12:15 AM,36.5,35.6,97,30.07,7.0,Calm,Calm,-,N/A,,Clear,0,2013-02-15 05:15:00
12:35 AM,35.8,35.1,97,30.06,5.0,Calm,Calm,-,N/A,,Clear,0,2013-02-15 05:35:00
12:55 AM,36.0,35.2,97,30.07,5.0,Calm,Calm,-,N/A,,Clear,0,2013-02-15 05:55:00
1:15 AM,36.1,35.2,97,30.07,5.0,Calm,Calm,-,N/A,,Clear,0,2013-02-15 06:15:00
1:55 AM,35.2,34.5,97,30.08,2.0,Calm,Calm,-,N/A,,Clear,0,2013-02-15 06:55:00
2:15 AM,35.1,34.5,98,30.07,1.2,Calm,Calm,-,N/A,,Mist,0,2013-02-15 07:15:00
2:35 AM,34.7,34.2,98,30.08,3.0,Calm,Calm,-,N/A,,Clear,0,2013-02-15 07:35:00
2:55 AM,34.5,34.0,98,30.07,7.0,Calm,Calm,-,N/A,,Clear,0,2013-02-15 07:55:00
3:15 AM,34.9,34.3,98,30.07,2.0,Calm,Calm,-,N/A,,Clear,0,2013-02-15 08:15:00
3:35 AM,33.6,33.1,98,30.05,2.0,Calm,Calm,-,N/A,,Clear,0,2013-02-15 08:35:00
3:55 AM,37.0,36.7,99,30.06,10.0,Calm,Calm,-,N/A,,Clear,0,2013-02-15 08:55:00
4:15 AM,35.6,35.1,98,30.07,5.0,Calm,Calm,-,N/A,,Clear,0,2013-02-15 09:15:00
4:35 AM,37.4,37.0,99,30.07,10.0,Calm,Calm,-,N/A,,Clear,0,2013-02-15 09:35:00
4:55 AM,37.2,36.3,97,30.08,10.0,Calm,Calm,-,N/A,,Clear,0,2013-02-15 09:55:00
5:15 AM,37.8,37.0,97,30.07,7.0,Calm,Calm,-,N/A,,Clear,0,2013-02-15 10:15:00
5:35 AM,34.9,33.3,94,30.07,5.0,Calm,Calm,-,N/A,,Clear,0,2013-02-15 10:35:00
5:55 AM,34.2,33.6,98,30.07,2.5,Calm,Calm,-,N/A,,Clear,0,2013-02-15 10:55:00
6:15 AM,35.6,35.1,98,30.08,7.0,Calm,Calm,-,N/A,,Clear,0,2013-02-15 11:15:00
6:35 AM,35.6,34.9,97,30.07,0.8,Calm,Calm,-,N/A,,Mist,0,2013-02-15 11:35:00
6:55 AM,34.5,34.0,98,30.08,7.0,Calm,Calm,-,N/A,,Clear,0,2013-02-15 11:55:00
7:15 AM,34.5,34.0,98,30.08,4.0,Calm,Calm,-,N/A,,Clear,0,2013-02-15 12:15:00
7:35 AM,35.6,35.2,99,30.09,1.2,Calm,Calm,-,N/A,,Mist,0,2013-02-15 12:35:00
7:55 AM,38.3,37.9,99,30.09,5.0,Calm,Calm,-,N/A,,Clear,0,2013-02-15 12:55:00
8:15 AM,43.7,42.8,97,30.10,7.0,Calm,Calm,-,N/A,,Clear,0,2013-02-15 13:15:00
8:35 AM,47.5,43.0,84,30.09,10.0,Calm,Calm,-,N/A,,Clear,0,2013-02-15 13:35:00
8:55 AM,48.4,42.1,79,30.09,10.0,North,4.6,-,N/A,,Clear,360,2013-02-15 13:55:00
9:15 AM,49.5,41.9,75,30.09,10.0,Calm,Calm,-,N/A,,Clear,0,2013-02-15 14:15:00
9:35 AM,50.5,41.4,71,30.10,10.0,Calm,Calm,-,N/A,,Clear,0,2013-02-15 14:35:00
9:55 AM,51.3,39.9,65,30.10,10.0,North,3.5,-,N/A,,Clear,350,2013-02-15 14:55:00
10:15 AM,52.0,38.7,60,30.10,10.0,Calm,Calm,-,N/A,,Clear,0,2013-02-15 15:15:00
10:35 AM,52.7,37.0,55,30.09,10.0,NNE,5.8,-,N/A,,Clear,30,2013-02-15 15:35:00
10:55 AM,53.6,38.5,57,30.09,10.0,NNW,3.5,-,N/A,,Clear,340,2013-02-15 15:55:00
11:15 AM,54.3,39.0,56,30.08,10.0,Calm,Calm,-,N/A,,Clear,0,2013-02-15 16:15:00
11:35 AM,54.7,39.0,56,30.07,10.0,NNE,4.6,-,N/A,,Clear,30,2013-02-15 16:35:00
11:55 AM,54.5,38.1,54,30.07,10.0,NE,3.5,-,N/A,,Clear,50,2013-02-15 16:55:00
12:15 PM,55.4,36.9,50,30.06,10.0,NE,3.5,-,N/A,,Clear,40,2013-02-15 17:15:00
12:35 PM,55.6,35.6,47,30.05,10.0,ENE,3.5,-,N/A,,Clear,60,2013-02-15 17:35:00
1:15 PM,55.8,33.4,43,30.04,10.0,NE,5.8,-,N/A,,Clear,50,2013-02-15 18:15:00
1:55 PM,55.9,33.1,42,30.03,10.0,East,4.6,-,N/A,,Clear,100,2013-02-15 18:55:00
2:15 PM,55.2,33.1,43,30.03,10.0,East,5.8,-,N/A,,Clear,100,2013-02-15 19:15:00
2:35 PM,55.0,31.5,41,30.02,10.0,East,6.9,-,N/A,,Clear,90,2013-02-15 19:35:00
2:55 PM,55.2,32.2,42,30.02,10.0,East,6.9,-,N/A,,Clear,100,2013-02-15 19:55:00
3:15 PM,54.9,33.3,44,30.01,10.0,ESE,6.9,-,N/A,,Clear,110,2013-02-15 20:15:00
3:35 PM,54.3,33.8,46,30.01,10.0,ENE,6.9,-,N/A,,Clear,60,2013-02-15 20:35:00
3:55 PM,53.8,34.3,48,30.00,10.0,East,6.9,-,N/A,,Clear,90,2013-02-15 20:55:00
4:15 PM,52.9,34.9,50,30.00,10.0,ENE,5.8,-,N/A,,Clear,70,2013-02-15 21:15:00
4:35 PM,52.2,35.1,52,30.00,10.0,East,6.9,-,N/A,,Clear,80,2013-02-15 21:35:00
4:55 PM,51.6,35.8,55,29.99,10.0,East,4.6,-,N/A,,Clear,80,2013-02-15 21:55:00
5:15 PM,50.2,37.0,61,29.99,10.0,East,5.8,-,N/A,,Clear,90,2013-02-15 22:15:00
5:35 PM,48.4,37.6,66,29.98,10.0,East,3.5,-,N/A,,Clear,90,2013-02-15 22:35:00
5:55 PM,46.8,38.3,72,29.98,10.0,East,3.5,-,N/A,,Clear,90,2013-02-15 22:55:00
6:15 PM,45.9,38.5,75,29.98,10.0,Calm,Calm,-,N/A,,Clear,0,2013-02-15 23:15:00
6:35 PM,45.9,39.2,78,29.98,10.0,Calm,Calm,-,N/A,,Clear,0,2013-02-15 23:35:00
6:55 PM,42.8,38.3,84,29.98,10.0,Calm,Calm,-,N/A,,Clear,0,2013-02-15 23:55:00
7:15 PM,41.9,37.2,83,29.98,10.0,Calm,Calm,-,N/A,,Clear,0,2013-02-16 00:15:00
7:35 PM,41.4,38.7,90,29.98,10.0,Calm,Calm,-,N/A,,Clear,0,2013-02-16 00:35:00
7:55 PM,40.5,37.9,91,29.98,10.0,Calm,Calm,-,N/A,,Clear,0,2013-02-16 00:55:00
8:15 PM,40.5,38.3,92,29.98,10.0,Calm,Calm,-,N/A,,Clear,0,2013-02-16 01:15:00
8:35 PM,40.6,38.1,91,29.98,10.0,Calm,Calm,-,N/A,,Clear,0,2013-02-16 01:35:00
8:55 PM,40.1,38.1,93,29.98,10.0,Calm,Calm,-,N/A,,Clear,0,2013-02-16 01:55:00
9:15 PM,39.2,37.6,94,29.99,7.0,Calm,Calm,-,N/A,,Clear,0,2013-02-16 02:15:00
9:35 PM,40.1,38.1,93,29.99,10.0,Calm,Calm,-,N/A,,Clear,0,2013-02-16 02:35:00
9:55 PM,39.9,38.5,95,29.99,10.0,Calm,Calm,-,N/A,,Clear,0,2013-02-16 02:55:00
10:15 PM,39.4,38.3,96,29.98,7.0,Calm,Calm,-,N/A,,Clear,0,2013-02-16 03:15:00
10:35 PM,39.2,38.3,97,29.98,7.0,Calm,Calm,-,N/A,,Clear,0,2013-02-16 03:35:00
10:55 PM,39.2,37.9,95,29.97,3.0,Calm,Calm,-,N/A,,Clear,0,2013-02-16 03:55:00
11:15 PM,37.6,36.7,97,29.97,0.5,Calm,Calm,-,N/A,Fog,Fog,0,2013-02-16 04:15:00
11:35 PM,37.8,36.7,96,29.96,7.0,Calm,Calm,-,N/A,,Scattered Clouds,0,2013-02-16 04:35:00
11:55 PM,37.6,36.9,97,29.96,5.0,Calm,Calm,-,N/A,,Clear,0,2013-02-16 04:55:00